Wind_Speed
16 17 17 17 17 17 17 17 18 18 18 19 20 19 19 18 18 17 18 18 18 19 19 19 20 20 21 20 20 21 20 20 20 20 19 20 20 19
18 18 19 19 19 19 19 19 19 19 20 21 21 20 20 20 20 20 20 19 19 20 21 21 21 21 21 21 21 20 20 21 21 21 21 21 21 21
18 19 20 20 20 20 20 20 20 21 21 22 22 22 22 22 22 21 20 19 20 21 22 23 23 23 23 23 22 22 21 21 22 23 22 22 23 22
20 20 20 21 21 21 21 22 22 22 22 23 23 23 23 23 23 22 22 22 22 22 22 23 23 23 24 24 24 24 23 23 22 23 23 23 24 24
21 21 21 21 22 22 22 23 23 23 23 23 23 23 23 23 23 23 22 22 22 22 22 23 23 24 25 25 25 25 25 25 24 24 24 24 25 25
21 22 22 22 22 22 23 23 24 24 24 24 23 23 24 24 23 23 23 23 23 23 23 23 24 25 25 26 26 26 26 26 26 26 26 26 26 27
21 22 22 22 23 23 23 24 24 24 25 25 24 24 24 24 24 24 24 24 24 24 24 25 25 25 26 26 26 27 28 28 28 28 28 28 28 28
22 22 23 22 23 23 24 24 25 25 26 26 25 25 25 24 25 25 25 25 26 25 25 25 26 26 27 27 27 28 28 28 29 29 29 29 29 30
23 23 23 23 24 24 25 25 26 26 25 25 25 25 25 25 26 26 26 27 27 28 28 27 27 27 27 27 28 29 29 29 29 29 30 30 31 30
24 23 23 24 24 25 25 25 24 24 24 25 25 26 26 27 28 28 28 28 28 28 28 28 27 27 27 27 28 28 29 29 30 30 30 30 31 31
24 24 24 25 25 25 25 26 26 26 26 26 26 27 28 29 29 28 27 27 27 28 28 27 26 27 27 28 28 28 29 29 29 30 30 31 31 31
24 24 25 25 26 26 25 26 27 27 27 28 28 28 28 28 28 27 27 26 26 26 26 26 26 27 27 27 28 28 28 29 29 29 30 31 31 31
26 26 26 26 27 28 27 27 28 28 29 29 28 28 27 27 27 27 26 26 26 26 26 26 26 26 26 27 27 28 28 29 29 29 30 30 30 30
26 26 26 27 28 28 28 28 29 29 29 29 28 28 27 27 27 27 26 26 25 26 26 26 26 27 27 27 27 28 28 29 29 29 29 29 30 29
27 26 27 27 28 28 28 29 29 29 29 29 28 28 28 27 27 28 27 27 27 27 27 27 27 27 28 28 28 28 28 28 29 29 29 29 30 30
27 27 28 28 29 28 29 29 29 29 29 29 29 28 29 28 29 29 28 28 28 28 28 28 28 28 28 28 28 28 28 29 29 29 29 29 29 29
27 28 28 28 29 28 28 28 28 28 28 29 29 29 30 29 28 29 29 29 29 29 29 29 29 29 29 29 29 29 29 28 29 29 29 30 30 29
27 28 28 27 28 28 28 28 27 27 28 29 30 30 29 29 28 28 29 29 29 29 29 29 30 30 30 30 30 29 30 29 29 29 29 29 29 29
28 28 29 28 28 28 28 28 28 28 29 29 29 29 29 29 29 29 30 30 29 29 29 30 30 30 30 29 29 30 29 28 28 28 29 29 28 29
29 29 29 28 28 28 28 29 29 29 29 29 30 30 30 30 30 30 30 30 30 30 30 30 31 30 30 29 29 30 30 30 29 29 29 29 29 29
28 29 29 29 29 29 29 29 29 29 29 30 30 31 31 30 30 30 31 31 31 31 31 31 30 31 31 31 30 30 31 32 31 31 31 31 30 30
29 29 29 30 29 29 29 29 30 30 30 30 30 30 31 31 31 31 31 31 31 31 31 31 31 31 31 32 32 32 32 33 32 32 33 32 31 30
29 29 30 30 30 31 31 31 31 31 31 31 31 31 31 32 32 31 31 32 32 32 31 31 31 31 32 32 33 33 33 33 33 33 33 33 32 31
Wind_Direction
292 291 292 291 291 293 293 294 294 294 295 295 296 296 294 294 290 286 284 282 279 276 273 270 268 267 267 267 267 265 266 265 263 264 262 257 256 256
293 293 291 289 289 290 290 291 291 292 293 293 294 292 290 290 288 286 285 281 278 275 272 270 268 266 266 267 268 267 265 265 263 262 261 257 255 256
292 292 290 289 289 289 289 290 292 293 294 294 292 289 289 288 286 285 284 283 280 276 273 272 269 267 266 266 266 266 267 267 264 262 261 258 256 255
294 295 294 289 288 288 289 290 290 292 295 295 293 291 290 287 285 283 282 281 281 279 275 271 269 267 266 266 266 266 266 265 267 267 264 262 259 256
294 294 295 294 291 288 288 289 290 292 294 295 292 291 289 287 286 282 282 280 281 280 277 273 272 269 267 267 266 266 265 265 265 265 266 264 263 262
294 294 295 295 293 290 290 290 289 291 293 293 292 291 290 288 287 283 281 280 280 278 278 275 273 271 269 267 266 265 265 264 265 265 264 263 262 260
294 295 294 294 293 291 291 291 290 291 292 292 292 291 289 287 286 284 282 281 279 278 278 274 273 272 269 268 267 265 264 264 264 264 262 262 261 260
294 293 295 295 295 293 292 291 289 290 290 290 291 289 289 288 287 284 282 280 279 279 279 276 273 273 272 270 268 266 266 264 264 264 263 261 260 259
295 293 292 294 294 293 292 292 289 288 289 289 289 289 289 289 287 285 283 283 281 278 277 277 276 275 274 272 269 267 266 265 264 264 263 262 261 260
298 296 296 294 294 293 293 292 292 291 291 291 292 291 290 289 287 286 285 284 282 281 280 277 275 274 274 272 269 267 266 265 265 264 264 264 263 260
298 295 295 295 296 295 292 290 290 290 291 291 292 292 291 290 288 287 286 284 282 280 279 277 273 272 272 272 271 268 266 265 265 264 263 262 262 261
296 297 297 297 299 296 293 292 291 291 292 292 292 293 292 289 288 287 286 285 283 281 279 276 275 274 272 271 272 269 267 266 265 265 264 262 262 261
294 296 296 296 297 295 292 290 290 289 290 292 292 292 291 290 288 287 286 284 283 282 280 277 276 276 275 273 272 270 268 267 267 265 264 263 262 262
294 296 297 296 297 296 293 291 290 289 290 291 291 291 290 288 286 286 285 283 282 282 281 278 277 276 275 274 272 271 270 268 268 268 265 263 261 261
294 295 296 295 296 295 292 290 290 289 290 291 292 291 289 286 285 284 284 283 283 282 281 279 278 276 275 274 273 271 269 269 268 268 267 264 262 262
295 295 297 296 297 295 293 291 290 290 290 291 292 290 288 285 284 283 283 282 281 281 280 279 278 278 277 275 274 272 271 270 269 268 266 264 264 264
297 297 296 296 297 297 294 291 290 289 290 291 292 290 288 285 284 283 283 283 282 280 279 278 277 277 277 276 273 272 272 270 270 269 267 266 264 264
298 298 296 295 295 296 295 293 291 290 291 291 290 290 288 286 285 285 283 282 281 280 279 278 278 278 278 277 274 271 270 270 269 268 266 266 265 264
298 297 297 295 295 295 295 294 292 291 291 290 289 290 291 288 285 284 283 283 282 282 281 279 279 279 278 276 273 271 270 270 269 268 268 267 267 266
298 297 297 296 296 296 296 295 294 293 292 291 290 291 291 289 287 285 283 283 283 284 285 283 280 279 277 276 272 271 270 270 270 269 267 267 267 267
299 298 297 295 295 295 295 295 294 293 292 292 292 292 291 291 289 287 285 283 282 283 284 283 280 277 275 274 273 273 272 271 270 268 267 267 267 267
298 298 298 298 297 296 296 296 295 294 293 293 293 292 292 291 290 290 288 286 285 285 284 283 280 278 276 274 273 273 272 270 268 267 267 267 267 266
298 299 299 300 299 297 296 295 294 294 294 293 292 293 294 294 293 292 290 288 286 284 283 283 282 281 279 277 274 272 271 270 268 267 267 267 265 266
Height
5863 5862 5860 5859 5857 5856 5854 5853 5852 5850 5848 5846 5844 5842 5840 5838 5836 5834 5834 5833 5832 5831 5831 5831 5830 5830 5830 5830 5830 5830 5830 5830 5830 5830 5830 5830 5831 5832
5858 5857 5855 5854 5852 5850 5849 5847 5846 5844 5842 5840 5838 5837 5835 5833 5831 5829 5828 5827 5826 5825 5825 5825 5824 5824 5824 5824 5824 5824 5824 5824 5824 5824 5824 5825 5825 5826
5852 5851 5849 5848 5846 5845 5843 5841 5840 5838 5836 5834 5832 5830 5829 5827 5825 5823 5822 5821 5820 5819 5818 5818 5818 5818 5818 5817 5817 5817 5818 5818 5818 5818 5818 5818 5819 5820
5847 5845 5843 5842 5840 5839 5837 5835 5834 5832 5830 5828 5825 5823 5822 5820 5818 5817 5815 5814 5813 5812 5811 5811 5810 5810 5810 5810 5810 5810 5811 5811 5811 5811 5812 5812 5812 5813
5841 5839 5837 5836 5834 5832 5831 5829 5827 5825 5823 5821 5819 5817 5815 5813 5811 5810 5808 5807 5806 5805 5804 5804 5803 5803 5803 5803 5803 5803 5803 5804 5804 5804 5804 5805 5805 5806
5834 5833 5831 5829 5828 5826 5824 5822 5820 5818 5816 5814 5812 5810 5808 5806 5804 5803 5801 5800 5799 5798 5797 5796 5796 5795 5795 5795 5795 5795 5795 5796 5796 5796 5796 5797 5797 5798
5828 5826 5824 5823 5821 5819 5817 5815 5813 5811 5809 5807 5805 5803 5801 5799 5797 5795 5794 5793 5792 5791 5789 5789 5788 5787 5787 5786 5786 5786 5787 5787 5788 5788 5788 5788 5789 5790
5821 5819 5818 5816 5814 5812 5810 5808 5806 5804 5802 5800 5798 5796 5794 5792 5790 5788 5787 5785 5784 5783 5781 5780 5779 5779 5778 5778 5778 5778 5778 5779 5779 5779 5779 5779 5780 5781
5815 5813 5811 5809 5807 5805 5803 5801 5799 5797 5795 5793 5790 5788 5786 5784 5783 5781 5779 5777 5775 5774 5773 5772 5771 5770 5770 5769 5769 5769 5769 5769 5770 5770 5770 5770 5771 5772
5807 5805 5804 5802 5800 5798 5796 5793 5791 5789 5787 5785 5783 5781 5778 5776 5774 5772 5770 5768 5767 5765 5764 5763 5762 5762 5761 5760 5760 5759 5760 5760 5760 5760 5760 5761 5761 5762
5800 5798 5797 5795 5793 5791 5788 5786 5784 5782 5779 5777 5775 5772 5770 5768 5766 5764 5762 5760 5758 5757 5755 5755 5754 5753 5752 5752 5751 5750 5750 5750 5751 5751 5751 5751 5752 5752
5794 5792 5790 5788 5786 5783 5781 5779 5777 5774 5771 5769 5767 5764 5762 5759 5757 5755 5753 5752 5750 5749 5747 5746 5745 5744 5744 5743 5742 5741 5741 5741 5741 5741 5741 5741 5742 5742
5787 5784 5782 5780 5777 5775 5773 5771 5768 5766 5763 5761 5758 5756 5754 5752 5749 5747 5745 5744 5742 5740 5739 5738 5737 5735 5735 5734 5734 5733 5732 5732 5732 5732 5732 5732 5732 5733
5779 5777 5774 5772 5769 5767 5764 5762 5760 5757 5755 5752 5750 5748 5746 5743 5741 5739 5737 5735 5734 5732 5731 5729 5728 5727 5726 5725 5725 5724 5723 5723 5723 5723 5722 5722 5722 5723
5772 5769 5767 5764 5761 5758 5756 5754 5751 5749 5747 5745 5742 5740 5737 5735 5733 5731 5729 5727 5725 5724 5722 5721 5719 5718 5717 5716 5715 5715 5714 5714 5713 5713 5713 5713 5713 5714
5764 5762 5759 5756 5753 5750 5748 5745 5743 5740 5738 5736 5734 5731 5729 5727 5725 5723 5721 5719 5717 5715 5713 5712 5710 5709 5708 5707 5706 5705 5704 5704 5704 5703 5703 5704 5704 5704
5756 5754 5751 5748 5745 5742 5739 5737 5734 5732 5730 5727 5725 5723 5720 5718 5716 5714 5712 5710 5708 5706 5704 5703 5701 5700 5698 5698 5697 5696 5695 5694 5694 5693 5694 5694 5694 5694
5748 5745 5742 5739 5737 5734 5731 5729 5726 5723 5721 5719 5716 5714 5711 5709 5706 5704 5702 5700 5698 5697 5695 5693 5692 5691 5689 5688 5687 5686 5685 5685 5684 5684 5684 5684 5684 5684
5740 5737 5734 5731 5728 5726 5723 5720 5718 5715 5712 5710 5707 5705 5702 5700 5697 5695 5692 5690 5689 5687 5685 5683 5682 5680 5679 5678 5677 5676 5675 5675 5674 5674 5674 5674 5675 5675
5732 5728 5725 5722 5719 5717 5714 5712 5709 5706 5704 5701 5699 5696 5693 5691 5688 5685 5683 5681 5679 5677 5675 5673 5671 5670 5668 5668 5667 5666 5665 5665 5664 5664 5664 5664 5664 5664
5723 5720 5717 5714 5711 5708 5705 5703 5700 5698 5695 5692 5690 5687 5684 5681 5678 5676 5673 5671 5669 5667 5665 5663 5661 5659 5658 5657 5656 5656 5655 5654 5653 5653 5653 5653 5654 5654
5715 5711 5708 5705 5702 5699 5696 5694 5691 5688 5686 5683 5680 5677 5674 5672 5669 5666 5663 5661 5658 5656 5654 5652 5650 5648 5647 5646 5645 5645 5644 5644 5643 5642 5642 5643 5643 5644
5706 5703 5700 5697 5694 5691 5687 5684 5681 5678 5676 5673 5670 5667 5664 5661 5659 5656 5653 5650 5648 5646 5644 5642 5640 5638 5636 5635 5634 5633 5633 5632 5632 5632 5632 5632 5632 5633